Latest Weather Observations for Mount Gellibrand

IDV60801

Issued at 12:05 pm EDT Thursday 23 October 2014 (issued every 30 minutes, with the page automatically refreshed every 10 minutes)

About weather observations | Map of weather stations | Latest weather observations for VIC | Other Formats
Station Details ID: 090035 Name: MOUNT GELLIBRAND Lat: -38.23 Lon: 143.79 Height: 261.0 m
Data from the previous 72 hours. | See also: Recent months at Mount Gellibrand
Date/Time
EDT
Temp
°C
App
Temp
°C
Dew
Point
Rel
Hum
%
Delta-T
°C
Wind Press
QNH
hPa
Press
MSL
hPa
Rain
since 9 am
mm
Dir
 
Spd
km/h
Gust
km/h
Spd
kts
Gust
kts
23/12:00pm 14.5 11.8 11.7 83 1.5 E 17 26 9 14 1019.4 1019.5 0.0
23/11:30am 14.0 11.6 11.5 85 1.3 E 15 22 8 12 1019.9 1019.9 0.0
23/11:00am 13.5 11.5 11.4 87 1.1 E 13 19 7 10 1020.1 1020.1 0.0
23/10:30am 13.2 12.3 11.4 89 1.0 ESE 7 11 4 6 1020.4 1020.4 0.0
23/10:00am 13.2 10.8 11.4 89 1.0 E 15 19 8 10 1020.5 1020.5 0.0
23/09:30am 13.0 10.5 11.2 89 1.0 ESE 15 19 8 10 1020.5 1020.5 0.0
23/09:00am 12.8 10.9 11.7 93 0.6 ESE 13 17 7 9 1020.4 1020.4 1.4
23/08:30am 12.3 10.4 11.7 96 0.3 SE 13 17 7 9 1020.4 1020.4 1.4
23/08:00am 12.3 11.2 11.8 97 0.3 SE 9 15 5 8 1020.4 1020.4 1.4
23/07:30am 12.4 11.9 11.9 97 0.3 S 6 7 3 4 1020.2 1020.2 1.4
23/07:00am 12.2 11.7 11.9 98 0.2 S 6 7 3 4 1019.9 1019.9 1.4
23/06:30am 12.4 11.7 12.1 98 0.2 S 7 9 4 5 1019.7 1019.8 1.4
23/06:00am 12.3 11.2 11.8 97 0.3 SSE 9 13 5 7 1019.2 1019.3 1.4
23/05:30am 12.2 11.7 11.9 98 0.2 SE 6 9 3 5 1019.3 1019.4 1.4
23/05:00am 12.1 11.9 11.8 98 0.2 E 4 7 2 4 1019.4 1019.5 1.4
23/04:30am 12.2 11.7 11.9 98 0.2 ENE 6 7 3 4 1019.3 1019.4 1.4
23/04:00am 12.2 11.5 11.9 98 0.2 E 7 9 4 5 1019.1 1019.2 1.4
23/03:30am 12.2 11.5 11.9 98 0.2 ESE 7 11 4 6 1019.0 1019.0 1.4
23/03:00am 12.2 11.7 11.9 98 0.2 ESE 6 9 3 5 1019.0 1019.0 1.4
23/02:30am 12.2 11.7 12.0 99 0.1 S 6 9 3 5 1019.0 1019.0 1.4
23/02:00am 11.9 10.7 11.6 98 0.2 SW 9 11 5 6 1019.1 1019.2 1.4
23/01:30am 11.8 9.4 11.5 98 0.2 WSW 15 17 8 9 1019.3 1019.4 1.4
23/01:00am 11.8 9.8 11.5 98 0.2 WSW 13 15 7 8 1019.3 1019.4 1.4
23/12:30am 12.0 9.7 11.7 98 0.2 WSW 15 19 8 10 1019.4 1019.5 1.4
23/12:00am 11.9 9.2 11.6 98 0.2 W 17 20 9 11 1019.0 1019.0 1.4
 
Date/Time
EDT
Temp
°C
App
Temp
°C
Dew
Point
Rel
Hum
%
Delta-T
°C
Wind Press
QNH
hPa
Press
MSL
hPa
Rain
since 9 am
mm
Dir
 
Spd
km/h
Gust
km/h
Spd
kts
Gust
kts
22/11:30pm 12.1 10.2 11.8 98 0.2 W 13 15 7 8 1018.6 1018.6 1.2
22/11:00pm 12.5 8.2 12.2 98 0.2 WSW 26 30 14 16 1018.3 1018.3 1.2
22/10:30pm 12.7 9.2 12.2 97 0.3 W 22 30 12 16 1018.4 1018.4 1.2
22/10:00pm 13.2 8.0 12.7 97 0.3 WSW 32 37 17 20 1018.4 1018.4 1.2
22/09:30pm 13.4 7.2 12.6 95 0.4 WSW 37 43 20 23 1018.2 1018.2 0.0
22/09:00pm 13.6 8.4 12.7 94 0.5 W 32 39 17 21 1017.9 1017.9 0.0
22/08:30pm 16.1 10.7 12.8 81 1.9 W 33 44 18 24 1017.6 1017.6 0.0
22/08:00pm 18.8 14.7 11.6 63 4.0 W 24 33 13 18 1016.8 1016.8 0.0
22/07:30pm 22.8 21.2 10.3 45 6.9 SSW 9 9 5 5 1016.7 1016.7 0.0
22/07:00pm 22.5 19.7 11.3 49 6.3 S 17 20 9 11 1016.1 1016.1 0.0
22/06:30pm 24.5 19.8 12.1 46 7.2 SSW 28 35 15 19 1015.5 1015.5 0.0
22/06:00pm 25.6 21.3 13.1 46 7.4 SW 28 33 15 18 1015.5 1015.5 0.0
22/05:30pm 26.7 23.1 16.3 53 6.5 SW 30 39 16 21 1015.3 1015.3 0.0
22/05:23pm 27.2 23.7 15.6 49 7.2 WSW 28 39 15 21 1015.2 1015.2 0.0
22/05:00pm 30.3 29.9 13.1 34 10.3 NW 7 17 4 9 1015.3 1015.3 0.0
22/04:30pm 29.7 27.8 11.7 33 10.6 NW 13 19 7 10 1015.6 1015.6 0.0
22/04:00pm 28.5 27.3 12.8 38 9.3 NW 11 19 6 10 1015.9 1015.8 0.0
22/03:30pm 29.1 25.8 11.6 33 10.2 NW 20 24 11 13 1016.0 1016.0 0.0
22/03:00pm 28.6 25.9 11.6 34 9.9 N 17 20 9 11 1016.1 1016.1 0.0
22/02:30pm 30.0 27.0 12.0 33 10.6 N 19 26 10 14 1016.5 1016.5 0.0
22/02:00pm 28.9 27.3 11.5 34 10.1 NNW 11 20 6 11 1016.8 1016.8 0.0
22/01:30pm 29.0 27.5 12.0 35 10.0 NW 11 15 6 8 1017.1 1017.1 0.0
22/01:00pm 27.0 26.7 12.6 41 8.5 NW 6 11 3 6 1017.5 1017.5 0.0
22/12:30pm 27.8 27.2 11.8 37 9.3 NW 6 15 3 8 1017.8 1017.8 0.0
22/12:00pm 25.9 24.8 12.0 42 8.0 NNW 9 13 5 7 1018.1 1018.1 0.0
22/11:30am 24.8 24.7 12.1 45 7.3 NNW 4 7 2 4 1018.6 1018.6 0.0
22/11:00am 23.6 23.1 12.0 48 6.6 NNE 6 9 3 5 1018.9 1018.9 0.0
22/10:30am 21.8 21.3 12.6 56 5.3 NNW 7 9 4 5 1019.1 1019.2 0.0
22/10:00am 21.7 21.1 12.3 55 5.4 WNW 7 11 4 6 1019.3 1019.4 0.0
22/09:30am 19.6 18.8 10.9 57 4.8 WSW 6 11 3 6 1019.4 1019.5 0.0
22/09:00am 18.1 17.5 11.7 66 3.5 SSW 6 9 3 5 1019.3 1019.4 0.0
22/08:30am 16.4 15.1 11.1 71 2.9 S 9 9 5 5 1019.3 1019.4 0.0
22/08:00am 14.5 13.4 10.5 77 2.1 S 7 9 4 5 1019.1 1019.2 0.0
22/07:30am 17.7 16.5 10.3 62 4.0 N 7 9 4 5 1018.9 1018.9 0.0
22/07:00am 16.0 14.0 10.1 68 3.1 N 11 15 6 8 1019.0 1019.0 0.0
22/06:30am 14.3 11.9 9.9 75 2.3 NNE 13 15 7 8 1018.8 1018.8 0.0
22/06:00am 16.4 12.9 10.3 67 3.3 N 19 24 10 13 1018.9 1018.9 0.0
22/05:30am 13.8 12.7 10.6 81 1.7 ENE 7 9 4 5 1018.9 1018.9 0.0
22/05:00am 13.4 12.3 10.6 83 1.5 E 7 9 4 5 1018.8 1018.8 0.0
22/04:30am 13.9 12.5 10.9 82 1.6 NE 9 15 5 8 1018.8 1018.8 0.0
22/04:00am 14.4 12.9 10.6 78 2.0 NNE 9 15 5 8 1019.1 1019.2 0.0
22/03:30am 13.1 11.4 11.2 88 1.0 NE 11 13 6 7 1019.5 1019.6 0.0
22/03:00am 13.1 11.0 11.2 88 1.0 ENE 13 17 7 9 1019.7 1019.8 0.0
22/02:30am 13.2 11.4 10.9 86 1.2 E 11 15 6 8 1020.1 1020.1 0.0
22/02:00am 13.4 11.7 11.3 87 1.1 ENE 11 13 6 7 1020.5 1020.5 0.0
22/01:30am 13.7 12.1 11.4 86 1.2 ENE 11 13 6 7 1021.2 1021.2 0.0
22/01:00am 13.8 11.5 11.7 87 1.1 ENE 15 17 8 9 1021.5 1021.5 0.0
22/12:30am 14.0 10.9 11.7 86 1.2 ENE 19 20 10 11 1021.7 1021.7 0.0
22/12:00am 14.3 10.7 12.0 86 1.3 E 22 24 12 13 1021.9 1021.9 0.0
 
Date/Time
EDT
Temp
°C
App
Temp
°C
Dew
Point
Rel
Hum
%
Delta-T
°C
Wind Press
QNH
hPa
Press
MSL
hPa
Rain
since 9 am
mm
Dir
 
Spd
km/h
Gust
km/h
Spd
kts
Gust
kts
21/11:30pm 14.6 10.7 12.1 85 1.4 E 24 28 13 15 1022.3 1022.3 0.0
21/11:00pm 14.6 10.8 12.3 86 1.3 E 24 28 13 15 1022.7 1022.8 0.0
21/10:30pm 14.4 10.6 12.3 87 1.2 E 24 28 13 15 1022.9 1023.0 0.0
21/10:00pm 14.4 9.7 12.1 86 1.3 E 28 30 15 16 1022.9 1023.0 0.0
21/09:30pm 14.4 9.7 11.9 85 1.4 E 28 32 15 17 1023.1 1023.2 0.0
21/09:00pm 14.6 10.6 11.7 83 1.6 E 24 30 13 16 1022.9 1023.0 0.0
21/08:30pm 14.8 10.8 11.8 82 1.6 E 24 28 13 15 1022.8 1022.9 0.0
21/08:00pm 15.1 11.5 11.9 81 1.7 ESE 22 28 12 15 1022.9 1023.0 0.0
21/07:30pm 16.0 12.0 11.8 76 2.3 ESE 24 30 13 16 1022.7 1022.8 0.0
21/07:00pm 16.8 12.3 11.5 71 2.9 ESE 26 30 14 16 1022.6 1022.7 0.0
21/06:30pm 17.6 13.5 11.6 68 3.3 ESE 24 28 13 15 1022.7 1022.8 0.0
21/06:00pm 18.9 14.6 12.2 65 3.8 ESE 26 32 14 17 1022.8 1022.9 0.0
21/05:30pm 20.6 16.4 12.3 59 4.7 ESE 26 30 14 16 1022.8 1022.9 0.0
21/05:00pm 22.3 18.8 12.3 53 5.7 E 22 26 12 14 1023.0 1023.1 0.0
21/04:30pm 22.5 19.1 12.4 52 5.8 E 22 28 12 15 1022.9 1023.0 0.0
21/04:00pm 22.5 18.7 12.4 52 5.8 E 24 30 13 16 1023.3 1023.4 0.0
21/03:30pm 23.5 20.9 11.9 48 6.6 ENE 17 24 9 13 1023.7 1023.8 0.0
21/03:00pm 22.9 20.4 11.0 47 6.7 ENE 15 24 8 13 1024.2 1024.2 0.0
21/02:30pm 23.1 20.9 12.1 50 6.3 ENE 15 22 8 12 1024.4 1024.4 0.0
21/02:00pm 22.3 19.5 11.4 50 6.1 ENE 17 24 9 13 1024.9 1024.9 0.0
21/01:30pm 21.4 19.2 12.0 55 5.3 E 15 24 8 13 1025.4 1025.4 0.0
21/01:00pm 20.6 17.5 11.5 56 5.1 E 19 26 10 14 1025.7 1025.8 0.0
21/12:30pm 20.3 17.3 11.8 58 4.8 E 19 32 10 17 1025.9 1026.0 0.0
21/12:00pm 19.0 15.5 10.8 59 4.5 ENE 20 26 11 14 1026.1 1026.2 0.0
21/11:30am 17.9 14.4 10.8 63 3.9 E 20 28 11 15 1026.2 1026.3 0.0
21/11:00am 16.9 12.8 10.1 64 3.6 E 22 32 12 17 1026.2 1026.3 0.0
21/10:30am 16.1 12.0 10.2 68 3.1 E 22 28 12 15 1026.4 1026.5 0.0
21/10:00am 14.5 10.1 9.1 70 2.8 ENE 22 28 12 15 1026.4 1026.5 0.0
21/09:30am 13.6 9.3 9.3 75 2.2 E 22 26 12 14 1026.5 1026.6 0.0
21/09:00am 12.6 8.3 9.2 80 1.7 E 22 26 12 14 1026.7 1026.8 0.0
21/08:30am 11.3 6.5 8.9 85 1.2 E 24 28 13 15 1026.6 1026.7 0.0
21/08:00am 9.9 4.2 8.2 89 0.8 E 28 33 15 18 1026.3 1026.4 0.0
21/07:30am 8.7 2.8 7.3 91 0.7 E 28 32 15 17 1026.0 1026.1 0.0
21/07:00am 8.0 1.6 6.9 93 0.5 E 30 33 16 18 1025.8 1025.9 0.0
21/06:30am 7.8 1.3 6.7 93 0.5 ESE 30 33 16 18 1025.7 1025.8 0.0
21/06:00am 8.0 0.6 6.8 92 0.6 E 35 44 19 24 1025.4 1025.4 0.0
21/05:30am 7.8 0.7 6.6 92 0.6 E 33 39 18 21 1025.2 1025.2 0.0
21/05:00am 7.7 -0.1 6.5 92 0.6 E 37 41 20 22 1025.1 1025.1 0.0
21/04:30am 7.8 0.4 6.6 92 0.6 ESE 35 39 19 21 1025.3 1025.3 0.0
21/04:00am 7.9 0.1 6.7 92 0.6 ESE 37 43 20 23 1025.3 1025.3 0.0
21/03:30am 8.1 -0.1 6.7 91 0.7 ESE 39 44 21 24 1025.5 1025.5 0.0
21/03:00am 8.2 -0.4 6.7 90 0.7 E 41 46 22 25 1025.7 1025.8 0.0
21/02:30am 8.5 0.4 6.8 89 0.8 E 39 48 21 26 1026.2 1026.3 0.0
21/02:00am 8.5 -0.1 6.6 88 0.9 ESE 41 48 22 26 1026.4 1026.5 0.0
21/01:30am 8.6 -0.4 6.6 87 0.9 ESE 43 52 23 28 1026.6 1026.7 0.0
21/01:00am 8.6 0.0 6.6 87 0.9 ESE 41 48 22 26 1027.2 1027.3 0.0
21/12:30am 8.5 0.7 6.5 87 0.9 ESE 37 46 20 25 1027.5 1027.6 0.0
21/12:00am 8.9 0.8 7.0 88 0.9 E 39 46 21 25 1027.5 1027.6 0.0
 
Date/Time
EDT
Temp
°C
App
Temp
°C
Dew
Point
Rel
Hum
%
Delta-T
°C
Wind Press
QNH
hPa
Press
MSL
hPa
Rain
since 9 am
mm
Dir
 
Spd
km/h
Gust
km/h
Spd
kts
Gust
kts
20/11:30pm 9.1 2.2 7.4 89 0.8 E 33 41 18 22 1028.0 1028.0 0.0
20/11:00pm 9.1 2.4 7.5 90 0.8 E 32 39 17 21 1028.2 1028.2 0.0
20/10:30pm 9.4 2.2 7.5 88 0.9 ESE 35 41 19 22 1028.2 1028.2 0.0
20/10:00pm 9.7 2.5 7.8 88 0.9 ESE 35 43 19 23 1028.3 1028.3 0.0
20/09:30pm 9.7 2.5 7.8 88 0.9 ESE 35 43 19 23 1028.3 1028.3 0.0
20/09:00pm 9.8 2.2 7.7 87 1.0 ESE 37 44 20 24 1028.2 1028.2 0.0
20/08:30pm 9.9 2.4 7.8 87 1.0 ESE 37 46 20 25 1028.0 1028.0 0.0
20/08:00pm 9.9 2.4 7.8 87 1.0 ESE 37 44 20 24 1028.0 1028.0 0.0
20/07:30pm 10.3 2.5 8.1 86 1.1 SE 39 48 21 26 1028.1 1028.1 0.0
20/07:00pm 10.7 2.4 7.8 82 1.4 SE 41 50 22 27 1028.0 1028.0 0.0
20/06:30pm 11.2 2.9 7.9 80 1.6 ESE 41 48 22 26 1028.2 1028.2 0.0
20/06:00pm 11.8 3.1 7.5 75 2.1 SE 43 50 23 27 1028.2 1028.2 0.0
20/05:30pm 12.4 3.7 7.5 72 2.4 SE 43 50 23 27 1028.3 1028.3 0.0
20/05:23pm 12.6 3.9 7.5 71 2.5 SE 43 48 23 26 1028.3 1028.3 0.0
20/05:00pm 13.1 4.7 7.3 68 2.8 E 41 50 22 27 1028.3 1028.3 0.0
20/04:30pm 13.4 5.1 6.3 62 3.4 ESE 39 54 21 29 1028.5 1028.5 0.0
20/04:00pm 14.0 6.5 6.4 60 3.7 E 35 46 19 25 1028.5 1028.5 0.0
20/03:30pm 14.4 6.6 6.5 59 3.9 E 37 46 20 25 1028.8 1028.8 0.0
20/03:00pm 14.3 6.3 5.7 56 4.1 E 37 46 20 25 1028.9 1029.0 0.0
20/02:30pm 13.9 5.7 4.8 54 4.3 E 37 48 20 26 1029.2 1029.3 0.0
20/02:00pm 14.0 5.7 4.0 51 4.6 E 37 44 20 24 1029.5 1029.6 0.0
20/01:47pm 13.9 5.4 3.4 49 4.8 E 37 46 20 25 1029.4 1029.5 0.0
20/01:30pm 14.7 6.8 4.1 49 4.9 ESE 35 44 19 24 1029.5 1029.6 0.0
20/01:00pm 13.5 5.4 3.0 49 4.7 E 35 44 19 24 1029.8 1029.9 0.0
20/12:30pm 13.6 5.5 3.1 49 4.8 E 35 43 19 23 1030.2 1030.3 0.0

Other Formats:

Comma delimited format used in spreadsheet applications
http://www.bom.gov.au/fwo/IDV60801/IDV60801.95845.axf

JavaScript Object Notation format (JSON) in row-major order
http://www.bom.gov.au/fwo/IDV60801/IDV60801.95845.json